Location: Miles
(41.4492°N, 81.6087°W)
Time: 06:36:11
(UTC+00:00)

Vanguard 1 Rocket - Pass Details

Date: 12 September 2024
Orbit: 650 x 4218 km, 34.3° (Epoch: 05 October)

Event Time Altitude Azimuth Distance (km) Brightness Sun altitude
Rises 06:36:30 0° 181° (S) 5,065 - -41.6°
Reaches altitude 10° 06:40:52 10° 164° (SSE) 4,628 - -41.2°
Exits shadow 06:46:18 18° 139° (SE) 4,621 10.7 -40.8°
Maximum altitude 06:49:33 19° 124° (SE) 4,872 11.0 -40.5°
Drops below altitude 10° 07:01:31 10° 88° (E) 6,674 12.1 -39.3°
Sets 07:10:01 0° 75° (ENE) 8,187 12.8 -38.4°
